Lapse_Rate
6.2 6.2 6.2 6.1 6.1 6.3 6.6 6.7 6.9 6.7 6.7 6.5 6.3 6.0 5.7 5.9 5.9 5.8 6.0 5.8 5.5 5.2 5.0 4.8 4.9 5.1 5.1 5.2 5.3 5.4 5.8 6.1 6.0 6.0 6.6 6.9 7.2 7.1 7.1 7.0 7.1 6.8 7.5
6.5 6.4 6.4 6.4 6.2 6.3 6.6 6.7 6.9 6.5 6.5 6.2 6.3 6.1 5.8 5.8 5.7 5.8 6.0 6.0 5.4 5.6 5.3 4.9 5.0 5.0 5.1 5.2 5.1 5.0 5.1 4.4 4.6 4.8 5.2 5.8 6.3 6.7 7.2 7.0 6.9 6.5 7.1
6.6 6.5 6.5 6.2 6.2 6.4 6.5 6.7 6.9 6.4 6.5 6.2 6.1 6.0 5.9 5.8 5.8 5.8 6.0 6.3 5.9 5.7 5.4 5.4 5.3 5.3 5.3 5.1 5.3 5.5 5.4 5.1 5.1 5.1 4.9 5.0 5.1 5.2 6.1 6.8 6.9 6.6 6.3
6.5 6.5 6.4 6.1 6.3 6.5 6.8 6.7 6.7 6.4 6.1 5.9 5.9 5.8 6.0 6.0 6.1 6.2 6.3 6.3 6.2 6.1 6.1 6.0 5.7 5.7 5.5 5.4 5.5 5.3 5.3 5.3 5.4 5.4 5.3 5.2 5.2 5.3 5.4 5.8 6.1 6.5 6.1
6.7 6.1 6.0 6.3 6.5 6.6 6.7 6.8 6.3 6.0 5.9 5.9 6.1 6.2 6.4 6.6 6.7 6.7 6.6 6.7 6.5 6.2 6.1 6.1 6.2 6.1 5.9 5.6 5.4 5.5 5.7 5.6 5.5 5.5 5.3 5.3 5.3 5.5 5.5 5.8 5.9 6.0 6.5
6.2 6.1 6.1 6.4 6.5 6.5 6.7 6.4 5.9 6.0 6.2 6.4 6.8 6.8 7.0 6.9 6.8 6.8 6.9 7.0 7.0 6.9 6.7 6.4 6.4 6.4 6.1 5.8 5.8 5.8 5.6 5.6 5.5 5.6 5.6 5.6 5.7 5.8 5.8 5.9 6.0 6.1 6.2
6.4 6.2 6.2 6.5 6.5 6.7 6.4 6.0 6.0 6.3 6.6 6.9 7.2 7.3 7.0 6.8 6.8 7.0 7.0 7.0 6.9 6.8 6.7 6.7 6.5 6.5 6.6 6.4 6.1 6.0 6.0 6.1 5.9 5.9 5.8 5.9 5.9 5.9 6.0 6.1 6.2 6.2 6.3
6.4 6.2 6.3 6.5 6.6 6.4 6.3 6.2 6.4 6.5 6.7 7.0 7.2 7.1 7.0 7.0 7.2 7.1 7.1 7.0 6.9 6.9 6.7 6.6 6.5 6.6 6.6 6.5 6.5 6.5 6.5 6.7 6.7 6.7 6.7 6.8 6.9 6.6 6.6 6.6 6.5 6.3 6.6
6.3 6.1 6.3 6.5 6.5 6.5 6.4 6.4 6.4 6.5 6.5 6.6 6.8 7.0 7.1 7.1 7.2 7.1 7.0 6.8 6.7 6.5 6.5 6.5 6.5 6.5 6.4 6.4 6.5 6.7 6.8 7.0 7.0 7.1 7.2 7.3 7.4 7.5 7.4 7.2 7.1 7.1 6.4
6.3 6.3 6.4 6.6 6.5 6.4 6.5 6.4 6.5 6.4 6.4 6.5 6.9 7.0 7.2 7.0 6.9 6.7 6.7 6.6 6.4 6.3 6.1 6.1 6.1 6.1 6.2 6.2 6.3 6.4 6.5 6.5 6.4 6.6 6.8 6.9 7.0 7.2 7.3 7.5 7.6 7.5 7.6
6.2 6.5 6.6 6.5 6.5 6.6 6.5 6.5 6.5 6.4 6.7 6.9 7.0 6.9 6.8 6.7 6.6 6.6 6.5 6.4 6.2 6.0 5.9 5.9 5.9 6.0 6.1 6.3 6.4 6.5 6.5 6.7 6.8 6.7 6.7 6.8 6.8 6.8 6.9 7.1 7.4 7.4 7.3
6.3 6.6 6.5 6.5 6.6 6.6 6.4 6.6 6.7 6.7 7.0 6.9 6.8 6.6 6.6 6.5 6.4 6.4 6.3 6.2 6.0 5.9 5.8 5.9 5.9 6.0 6.1 6.2 6.3 6.3 6.5 6.5 6.5 6.4 6.4 6.4 6.5 6.6 6.7 6.8 6.8 6.9 7.1
6.7 6.7 6.5 6.6 6.5 6.5 6.6 6.6 6.8 7.0 6.9 6.7 6.7 6.6 6.5 6.5 6.3 6.2 6.2 6.0 5.8 5.7 5.7 5.6 5.7 5.7 5.7 5.7 5.7 5.9 5.9 5.8 5.9 6.1 6.2 6.2 6.3 6.2 6.2 6.0 6.0 6.2 6.5
6.7 6.4 6.6 6.4 6.5 6.6 6.7 6.8 6.9 6.8 6.7 6.6 6.5 6.4 6.3 6.2 6.2 6.2 6.0 5.8 5.8 5.7 5.8 5.7 5.8 5.8 5.8 5.7 5.7 5.6 5.7 5.8 5.8 5.8 5.7 5.7 5.7 5.7 5.7 5.8 5.6 5.5 5.5
6.6 6.6 6.4 6.4 6.5 6.5 6.6 6.7 6.7 6.6 6.5 6.4 6.3 6.1 6.0 6.0 6.1 6.0 6.0 5.9 5.8 5.7 5.6 5.6 5.6 5.4 5.4 5.3 5.3 5.3 5.4 5.5 5.5 5.5 5.6 5.6 5.6 5.5 5.5 5.6 5.7 5.7 5.7
6.4 6.3 6.1 6.3 6.4 6.4 6.5 6.7 6.6 6.5 6.4 6.3 6.2 6.1 6.1 6.1 6.1 6.1 6.0 5.9 5.8 5.6 5.5 5.5 5.3 5.2 5.2 5.2 5.3 5.3 5.3 5.3 5.3 5.3 5.3 5.3 5.2 5.2 5.3 5.2 5.1 5.1 5.1
6.1 5.8 6.3 6.2 6.2 6.3 6.5 6.5 6.5 6.4 6.4 6.3 6.2 6.1 6.0 6.0 6.0 5.8 5.8 5.7 5.6 5.5 5.4 5.1 5.0 5.0 5.1 5.1 5.1 5.1 5.0 4.9 4.9 4.8 4.7 4.7 4.8 4.7 4.7 4.8 4.8 4.7 4.6
6.0 6.0 6.0 6.1 6.1 6.2 6.3 6.5 6.4 6.3 6.4 6.3 6.1 5.9 5.8 5.8 5.9 5.8 5.7 5.7 5.4 5.2 4.9 4.8 4.8 4.8 4.8 4.7 4.6 4.4 4.4 4.3 4.3 4.3 4.4 4.4 4.4 4.4 4.3 4.3 4.3 4.4 4.4
5.5 5.8 6.0 6.1 6.1 6.1 6.2 6.3 6.2 6.0 6.1 6.1 5.9 5.8 5.8 5.7 5.7 5.6 5.4 5.3 5.1 4.8 4.7 4.6 4.6 4.6 4.4 4.3 4.2 4.2 4.1 4.1 4.1 4.1 4.1 4.1 4.1 4.1 4.1 4.1 4.1 4.1 4.2
5.7 6.1 6.0 6.1 6.0 6.0 6.1 6.3 6.3 6.1 5.9 5.9 5.9 5.7 5.7 5.7 5.6 5.5 5.4 5.2 4.7 4.6 4.6 4.5 4.4 4.2 4.1 4.0 4.0 3.9 3.9 3.9 3.9 3.9 3.9 3.8 3.8 3.8 3.8 3.9 4.0 4.2 4.2
5.7 5.8 5.9 5.9 5.9 6.0 6.0 6.2 6.2 6.1 5.9 5.8 5.8 5.8 5.6 5.5 5.4 5.3 5.0 4.8 4.7 4.6 4.4 4.2 4.1 4.0 4.0 3.9 3.9 3.9 3.9 3.8 3.6 3.5 3.5 3.5 3.5 3.6 3.7 3.8 4.0 4.1 4.0
5.7 5.7 5.6 5.6 5.6 5.7 5.7 5.8 5.8 6.0 6.0 5.9 5.8 5.7 5.6 5.4 5.2 5.1 4.9 4.7 4.5 4.3 4.2 4.1 4.1 4.0 3.9 3.9 3.9 3.9 3.7 3.5 3.4 3.4 3.4 3.4 3.6 3.8 4.0 4.1 4.1 4.1 4.1
5.7 5.6 5.6 5.7 5.6 5.5 5.6 5.6 5.7 5.8 5.8 5.8 5.6 5.5 5.4 5.3 5.2 4.9 4.7 4.5 4.3 4.2 4.1 4.0 4.0 3.9 3.8 3.8 3.7 3.6 3.5 3.4 3.5 3.6 3.7 3.8 3.9 4.1 4.2 4.1 4.1 4.0 4.0
5.7 5.6 5.6 5.6 5.5 5.4 5.5 5.6 5.6 5.6 5.6 5.6 5.6 5.6 5.4 5.1 4.9 4.7 4.6 4.4 4.2 4.0 4.0 4.0 3.9 3.8 3.8 3.6 3.5 3.4 3.5 3.6 3.7 3.8 3.9 4.0 4.1 4.2 4.1 4.1 4.1 4.2 4.2
5.5 5.6 5.7 5.7 5.6 5.6 5.6 5.6 5.7 5.7 5.8 5.7 5.4 5.4 5.1 4.9 4.8 4.6 4.5 4.3 4.1 4.1 4.0 3.9 3.9 3.7 3.6 3.5 3.5 3.7 3.7 3.8 3.9 3.9 4.0 4.1 4.1 4.2 4.2 4.3 4.4 4.4 4.3
5.4 5.4 5.5 5.5 5.4 5.5 5.5 5.5 5.5 5.4 5.2 5.3 5.2 5.1 4.9 4.9 4.7 4.6 4.4 4.3 4.2 4.1 4.0 3.9 3.7 3.7 3.6 3.7 3.8 3.8 3.8 4.0 4.1 4.2 4.3 4.3 4.3 4.3 4.4 4.5 4.5 4.4 4.2
Wind_Speed
4 4 5 5 4 4 4 5 6 8 9 8 8 7 8 9 9 7 8 10 11 11 10 11 11 11 8 6 6 6 6 5 4 3 6 9 11 13 13 18 18 14 18
5 4 5 6 5 5 6 6 9 8 12 8 9 8 8 9 8 8 10 10 11 10 11 11 12 10 12 10 8 10 8 7 5 7 7 8 11 13 11 12 11 18 16
5 6 6 6 6 6 7 8 9 8 8 10 8 8 8 8 7 9 10 9 10 11 10 12 12 12 12 10 10 9 9 7 7 6 6 7 9 11 12 11 11 12 14
8 7 6 6 7 7 7 8 9 9 8 8 8 7 7 8 9 10 10 10 10 10 10 10 12 13 13 11 10 10 9 7 8 7 7 9 9 12 10 11 12 11 7
10 8 6 7 8 8 8 9 7 8 7 9 8 8 7 8 6 9 9 10 10 10 11 11 12 17 19 15 7 9 11 9 8 8 9 8 11 13 14 10 10 11 4
11 8 7 8 8 8 8 8 8 7 7 8 8 9 8 8 18 19 10 8 10 11 11 10 10 18 15 18 20 22 18 11 12 9 9 11 12 12 12 10 10 12 6
10 8 7 8 8 8 8 8 8 7 7 7 7 6 9 9 16 18 16 7 8 8 8 9 11 11 16 11 17 20 19 23 21 10 11 10 10 13 12 12 13 11 6
9 9 8 8 8 8 8 7 6 5 4 3 5 6 6 10 17 18 17 9 7 8 8 9 7 10 15 14 13 12 12 12 12 9 10 10 10 13 12 10 11 9 6
10 9 8 8 8 8 6 5 5 7 3 4 3 6 7 5 18 17 10 5 6 7 7 8 7 9 23 24 11 11 10 11 18 22 22 23 24 27 26 9 12 10 6
10 9 8 8 8 7 6 7 3 4 4 4 5 5 13 5 18 18 12 3 5 4 6 7 23 16 24 25 11 11 11 11 10 11 9 16 19 20 27 17 9 9 8
10 9 9 8 7 6 5 4 8 8 5 3 3 4 6 8 8 15 15 3 2 3 5 5 7 22 23 24 23 13 14 8 10 8 8 8 8 11 13 18 15 7 7
11 10 8 7 5 4 5 5 9 9 5 3 3 4 4 7 12 14 14 14 13 5 3 3 10 21 22 23 18 25 25 12 8 9 10 10 10 11 10 17 16 15 15
11 9 7 6 5 6 7 8 7 7 6 4 3 2 3 3 4 9 13 15 17 5 7 15 20 21 20 15 22 23 14 8 8 9 9 8 9 9 16 16 17 18 15
12 10 8 8 7 7 5 5 6 5 5 5 3 2 2 3 3 4 6 10 13 11 13 13 13 13 14 10 8 12 10 6 6 6 6 4 8 7 9 9 9 11 10
11 10 10 7 7 6 5 4 5 2 6 5 2 2 3 2 2 8 8 5 3 7 8 5 4 4 4 5 5 6 7 7 8 7 7 8 8 8 9 8 8 8 9
11 9 8 7 7 7 7 6 14 14 14 11 9 4 1 7 9 12 14 14 15 15 6 4 4 4 5 6 6 6 7 8 8 8 7 7 8 8 9 9 8 8 9
11 10 8 8 7 7 7 7 7 8 12 10 8 8 7 10 12 11 12 14 14 13 4 3 2 3 4 6 5 6 7 7 10 7 7 8 8 8 9 8 9 9 10
9 12 8 7 7 6 5 5 4 4 3 1 5 7 3 13 13 11 11 12 4 5 4 4 3 3 5 5 6 6 6 7 7 8 7 7 7 8 8 9 9 9 10
9 6 7 7 7 7 6 6 5 4 3 2 1 5 6 15 14 13 14 4 2 2 4 4 4 4 4 5 3 4 2 4 4 4 5 6 6 7 7 8 8 12 10
8 12 9 7 6 6 5 6 6 6 5 3 2 2 2 6 4 3 2 2 3 3 2 3 4 3 3 3 2 3 3 4 5 5 5 4 4 6 6 8 8 9 10
7 7 8 6 5 5 4 6 6 7 6 3 3 2 5 6 4 4 3 2 2 3 1 2 1 2 4 5 4 3 3 3 4 5 5 6 5 6 7 7 7 8 10
7 7 6 6 5 5 5 5 6 6 6 5 3 3 7 4 4 4 3 3 4 8 7 6 4 4 5 5 4 2 2 3 3 4 5 6 6 6 6 7 8 8 9
7 7 7 5 5 6 4 4 5 5 5 4 5 5 3 3 3 4 4 4 7 7 7 6 4 3 5 7 5 5 3 4 9 13 5 6 6 6 6 7 8 8 9
7 7 7 6 5 5 5 4 4 5 5 5 4 4 4 4 4 4 6 7 5 5 6 5 5 2 5 5 4 7 6 11 14 13 13 9 6 7 7 7 8 9 8
7 6 6 6 6 5 4 4 4 4 5 5 4 3 4 4 4 2 8 7 5 4 4 4 5 4 7 6 5 8 11 15 14 15 15 12 10 9 8 7 8 8 9
6 6 5 5 5 5 5 4 4 4 5 4 4 4 5 4 4 7 8 6 5 2 1 4 6 5 8 2 8 11 13 15 15 16 16 12 8 5 7 8 9 7 8
Wind_Direction
149 155 153 142 127 98 67 57 54 59 61 56 35 23 14 25 23 44 53 39 32 47 24 8 4 2 358 5 6 359 2 354 313 313 335 1 355 350 343 342 341 341 345
176 133 103 102 90 83 68 63 60 69 54 53 45 30 21 24 21 44 46 39 42 38 28 16 9 9 11 7 9 10 4 7 346 339 360 359 1 354 343 347 346 348 339
122 113 99 96 91 83 71 65 61 80 64 48 41 34 22 19 25 69 54 45 44 40 28 22 17 16 16 7 9 10 6 358 9 17 6 5 0 1 352 354 355 351 354
120 106 104 95 93 85 80 72 66 77 65 54 41 29 25 39 53 67 58 53 50 44 33 28 31 27 23 8 17 9 9 3 14 21 17 14 6 2 2 355 357 354 2
117 111 110 102 95 89 82 74 71 70 73 55 49 37 34 41 69 66 62 53 48 46 40 34 34 37 34 30 23 14 17 18 22 23 20 12 12 7 8 345 353 343 339
119 122 118 102 101 98 91 83 78 72 67 60 47 50 44 57 72 72 71 60 50 43 42 33 40 37 34 32 34 33 31 31 33 25 24 19 12 7 359 356 354 359 0
122 130 121 113 110 103 100 97 91 81 73 55 42 41 59 62 70 71 68 58 49 36 26 31 37 40 32 28 30 31 29 33 41 33 27 21 7 4 357 359 358 356 337
131 133 126 120 115 111 107 110 100 88 67 50 37 29 51 66 72 72 67 51 39 30 24 27 21 44 39 32 31 30 24 22 28 30 29 26 14 13 13 3 352 346 320
128 134 134 128 121 117 121 128 111 102 67 42 20 39 39 55 72 73 55 34 26 19 23 20 39 43 47 39 32 30 23 22 18 29 33 31 28 24 23 11 16 14 356
140 142 136 128 125 128 139 135 116 96 89 71 40 20 46 15 80 72 60 33 29 18 16 9 43 49 47 46 38 33 29 7 2 6 11 13 15 14 21 23 8 16 1
139 137 130 129 132 140 150 116 130 115 97 67 55 18 24 34 58 79 73 59 58 30 36 24 41 39 44 43 42 38 35 5 12 12 13 12 10 11 13 11 8 7 5
141 134 130 130 139 145 116 112 138 127 106 71 50 26 7 10 57 65 68 75 65 57 24 22 46 48 39 43 39 36 29 18 18 18 17 12 5 2 359 3 357 2 355
137 138 137 128 108 112 107 114 113 120 125 111 83 39 358 354 7 32 57 80 70 51 53 62 57 48 44 29 39 33 21 23 22 21 15 7 356 343 344 359 0 0 357
141 146 132 121 115 103 98 110 120 126 120 120 108 61 358 357 353 11 50 64 69 62 53 48 47 46 31 21 21 21 17 16 20 17 360 333 350 355 356 0 356 353 352
143 136 135 129 121 114 95 111 117 82 132 139 164 139 99 29 339 99 106 94 65 77 67 41 28 17 15 20 22 15 21 16 18 9 4 358 358 355 357 354 359 355 358
149 139 142 134 127 127 121 115 117 123 130 133 136 126 241 93 73 76 79 75 76 76 56 46 26 21 28 25 20 13 18 18 13 6 3 359 356 353 352 352 356 358 352
156 151 146 143 144 143 144 143 139 133 124 121 128 116 116 99 78 76 79 76 77 71 64 38 41 27 30 26 20 19 17 17 9 7 6 358 356 349 349 349 351 351 349
155 152 148 152 150 151 155 153 146 146 133 353 59 71 66 105 92 85 90 83 54 47 61 59 51 47 31 33 22 16 13 10 9 1 1 351 350 342 344 344 346 341 346
138 141 144 150 157 161 158 159 154 144 131 141 34 32 49 102 91 85 84 87 88 49 55 59 63 47 36 30 13 3 356 3 353 343 342 340 337 340 333 334 335 329 336
129 134 136 142 148 153 156 157 159 159 141 129 135 155 97 89 85 61 49 83 75 65 46 61 69 61 42 24 4 353 18 359 356 343 340 331 329 329 324 326 328 324 337
134 138 135 130 135 140 135 134 140 146 150 152 167 176 133 125 124 125 111 92 94 92 71 59 71 63 34 15 11 359 13 338 341 336 334 329 324 321 319 319 315 317 328
139 142 139 137 136 132 137 136 139 143 151 149 128 112 120 117 128 125 115 114 103 91 82 87 89 82 51 22 19 47 339 314 318 321 322 316 316 313 313 314 313 312 327
136 133 130 128 129 124 115 126 134 142 150 143 143 142 135 135 136 136 136 144 106 81 68 86 73 48 15 18 63 18 332 317 319 318 304 308 308 307 311 306 307 311 327
128 131 134 134 131 130 131 131 133 135 141 144 144 150 147 147 146 146 147 134 110 83 83 66 33 25 353 5 34 7 348 340 333 328 317 295 298 306 308 304 304 311 317
137 136 138 145 144 147 141 144 140 135 142 152 156 142 145 139 137 138 149 140 120 86 88 32 12 4 346 354 4 353 338 337 337 337 334 309 293 299 299 308 313 317 320
139 140 140 141 146 154 157 157 159 155 155 153 152 149 155 150 147 160 162 154 142 121 63 352 349 342 345 21 340 335 332 335 337 341 340 322 305 308 321 315 311 320 321